GFSSE_500_spd_093.txt.gz
Wind_Speed
9 10 11 12 13 13 13 12 11 11 10 9 8 8 8 8 7 7 6 7 7 7 7 7 8 8 9 9 9 10 10 11 11 11 10 11 11 12 11 11 12 12 12
11 11 12 12 13 14 14 13 13 12 12 10 10 10 9 9 9 9 9 8 8 7 7 7 7 8 8 9 9 10 10 11 11 11 10 10 10 10 10 10 9 10 11
12 13 13 14 14 14 15 14 14 13 13 12 12 11 11 11 11 10 10 10 9 9 8 7 6 7 7 8 8 9 10 11 11 12 11 10 10 9 10 9 8 8 8
14 15 16 17 17 18 17 15 14 14 13 13 14 14 13 13 13 12 12 11 11 10 10 9 8 7 7 8 8 9 10 11 12 12 12 12 10 10 9 8 8 7 7
16 17 19 20 21 20 19 17 15 14 14 14 14 16 16 15 14 13 13 12 12 12 12 11 10 9 8 9 9 9 10 11 12 12 12 12 12 11 10 10 9 7 6
17 18 20 21 22 21 19 17 16 15 15 15 14 15 17 17 16 15 15 13 13 13 13 12 11 10 10 10 10 10 11 11 11 12 12 12 12 12 12 12 11 9 8
21 22 23 23 23 22 20 19 18 17 17 17 17 17 16 18 15 13 10 12 13 13 13 13 13 12 12 12 12 12 13 13 13 12 13 13 13 13 13 13 13 11 10
21 20 20 21 22 22 22 22 21 20 19 18 17 16 14 16 14 15 14 14 14 14 15 15 15 15 14 14 15 16 16 16 16 15 15 15 15 14 14 14 14 14 13
21 22 21 20 20 21 21 21 21 19 19 17 16 16 16 18 18 17 16 16 17 17 17 17 18 17 17 17 18 18 19 19 19 19 18 18 17 17 17 16 15 15 15
22 20 18 16 16 17 17 17 17 14 13 12 13 14 17 18 19 19 19 19 19 19 19 20 20 21 21 21 21 22 22 22 22 22 22 21 20 19 19 19 18 18 18
16 15 15 15 15 14 14 13 13 14 15 16 16 16 18 19 20 20 20 21 22 22 22 22 23 23 24 25 24 25 25 26 26 25 24 24 24 22 21 21 21 21 22
18 17 16 16 16 15 15 15 13 14 16 17 16 17 17 18 19 19 20 21 22 23 24 24 25 25 26 27 27 27 26 27 27 27 26 26 26 25 25 24 24 24 24
22 21 20 19 18 16 15 16 17 19 19 17 16 17 18 19 18 19 19 21 21 23 23 24 25 26 27 28 28 28 28 28 28 28 27 27 27 27 27 27 26 26 26
23 22 20 20 19 19 19 18 19 19 22 22 21 20 20 19 19 19 21 23 23 24 26 27 28 29 29 30 30 29 29 30 29 29 29 29 29 29 29 29 28 28 28
26 24 24 23 21 20 20 21 23 24 22 24 24 22 21 21 22 23 23 24 25 27 27 29 30 32 31 32 32 31 31 31 31 31 31 30 31 31 30 30 30 30 30
29 27 27 27 25 25 25 27 27 29 26 23 22 21 22 23 24 26 26 26 27 29 29 30 31 31 32 32 32 31 32 32 32 31 32 32 31 32 31 31 31 31 31
31 29 28 30 29 29 31 28 27 31 27 27 25 25 25 24 26 28 28 29 29 30 31 31 32 32 33 33 33 33 33 33 34 34 34 33 33 33 32 33 32 31 31
33 33 31 34 33 32 26 23 28 31 29 29 26 26 28 26 29 31 30 30 31 33 34 34 34 35 36 36 36 37 37 37 37 37 36 37 37 36 36 36 36 35 34
33 32 32 33 36 26 26 23 29 30 24 26 29 26 27 29 31 34 34 35 35 36 37 37 37 38 39 38 39 39 39 40 40 41 40 40 41 41 40 39 40 39 39
35 35 35 34 21 24 27 25 26 23 22 26 29 29 32 35 36 37 37 37 38 37 38 38 39 39 40 40 41 42 42 42 41 41 40 39 39 38 38 39 38 38 38
37 40 45 19 18 23 26 24 25 23 24 26 29 32 35 36 38 41 39 39 39 40 40 41 41 42 42 42 41 39 38 40 40 40 42 43 42 43 45 45 44 43 42
42 28 31 25 21 24 25 27 27 28 30 32 32 33 35 38 41 40 40 40 40 41 42 43 43 42 41 39 39 42 44 46 48 47 48 51 52 52 53 52 52 51 51
36 34 35 27 21 25 28 29 31 34 33 33 34 35 36 38 39 40 40 41 42 44 43 41 40 40 43 46 47 50 52 53 55 57 59 58 59 60 61 61 61 61 61
38 36 31 26 25 31 33 35 35 34 33 35 35 36 37 39 39 41 43 44 44 44 41 42 45 47 50 53 56 57 58 61 63 63 65 66 68 68 68 66 68 69 70
41 36 35 30 32 35 37 36 36 35 35 35 36 37 38 40 41 44 45 46 44 42 46 49 53 56 59 61 64 67 68 70 71 72 72 73 74 75 75 75 74 74 76
31 32 34 34 36 38 37 36 36 35 36 36 37 39 40 42 45 47 46 44 46 50 54 58 61 65 68 70 71 73 75 76 77 78 79 79 80 80 80 80 81 82 83

GFSSE_500_spd_096.txt.gz
Wind_Speed
8 9 9 10 11 11 12 12 12 12 11 10 10 10 10 9 9 9 8 8 6 5 5 5 5 5 6 7 8 9 10 11 11 12 12 12 13 13 14 13 13 13 12
10 10 10 11 12 12 13 13 12 12 12 11 10 11 10 11 10 10 10 10 9 7 7 5 4 4 5 6 7 8 9 11 12 12 12 12 12 12 12 11 12 12 11
12 11 12 13 14 14 15 16 15 13 13 12 11 11 12 12 12 12 12 12 12 10 9 8 7 6 5 6 7 7 8 9 10 11 12 11 11 12 12 11 11 10 12
12 12 14 15 17 17 18 18 17 15 14 13 12 12 13 14 14 14 13 14 13 13 11 11 10 9 8 7 7 7 8 8 9 9 10 10 11 11 12 12 12 11 9
12 15 16 17 19 20 19 19 18 16 15 14 13 13 13 14 16 14 14 14 15 14 13 12 12 11 10 9 9 9 9 8 9 10 10 11 11 11 12 12 12 11 11
13 15 17 19 22 23 22 21 19 17 17 17 15 15 15 14 15 15 15 15 16 16 15 14 13 13 12 12 11 11 10 9 10 11 11 11 11 12 12 12 11 12 12
16 19 21 21 21 22 23 23 22 20 20 19 19 18 18 16 14 14 14 13 14 15 15 15 15 14 15 15 14 13 12 11 11 11 13 13 13 13 13 13 13 12 12
20 20 20 20 20 21 21 21 22 22 21 21 19 18 18 15 13 12 14 15 15 16 16 16 16 17 17 17 17 17 16 15 14 15 15 15 14 15 14 14 14 14 12
22 22 22 23 23 21 19 19 19 19 19 19 17 15 15 15 15 15 15 17 17 17 18 18 18 18 19 19 20 20 19 19 18 18 18 18 17 18 17 16 16 15 15
22 21 19 18 17 16 15 14 14 15 13 12 12 12 15 15 17 18 17 18 18 19 19 19 20 20 21 22 22 22 22 22 22 21 21 20 20 20 20 19 18 18 18
20 19 18 15 14 14 14 13 14 15 15 15 16 17 17 17 18 19 19 19 19 20 20 21 22 22 23 23 24 25 25 24 25 24 24 24 23 23 22 22 21 21 21
21 19 17 17 16 16 17 17 17 16 16 18 19 19 18 17 18 18 18 18 19 19 20 21 21 23 23 24 25 25 25 25 26 27 27 26 26 25 24 24 24 23 23
23 22 20 18 18 17 19 19 18 18 18 19 21 21 19 17 19 19 18 18 19 19 20 20 21 22 24 25 25 26 27 28 29 29 29 28 27 27 27 26 26 25 27
26 24 23 20 19 20 20 20 19 20 20 20 21 24 25 23 21 19 18 19 20 20 20 21 23 24 24 26 27 28 28 30 30 30 30 30 30 29 29 29 29 28 29
29 26 24 23 23 22 22 23 22 24 26 25 24 26 26 25 22 22 21 21 22 21 22 24 25 26 26 27 28 29 30 30 31 31 31 32 31 31 31 31 31 30 31
31 30 27 27 24 26 25 24 26 29 27 27 25 25 26 25 23 22 21 22 24 25 26 26 26 27 28 29 29 30 31 32 31 33 33 33 33 33 33 32 32 32 32
34 33 31 29 27 29 24 28 29 27 26 26 26 27 29 26 27 25 22 25 27 25 26 27 28 30 31 32 32 34 35 35 35 35 35 35 36 35 35 35 34 34 33
39 35 36 33 34 29 32 33 28 26 26 24 25 23 26 29 25 20 22 25 27 29 31 32 32 33 34 36 35 36 37 38 38 37 38 38 37 38 39 38 38 38 37
42 36 27 29 31 30 33 26 23 24 27 25 24 25 24 21 19 22 28 30 33 34 34 34 35 35 36 37 38 38 38 39 40 41 40 42 42 41 41 42 42 41 40
41 38 31 26 28 32 30 30 28 26 22 20 18 20 25 26 25 27 30 33 34 38 37 38 37 38 39 39 40 41 41 41 39 41 41 39 40 40 41 39 39 38 38
35 45 22 26 32 34 32 29 31 21 17 21 24 25 28 30 30 30 32 34 38 38 37 38 39 39 39 40 41 41 40 40 40 36 36 41 42 40 40 43 44 43 44
36 25 29 32 35 30 26 28 27 21 21 25 29 30 30 31 33 34 35 36 37 38 38 39 40 40 41 40 38 38 38 41 43 45 46 46 47 49 50 51 51 53 52
41 41 36 36 34 29 29 29 33 27 29 31 33 31 32 32 33 34 35 37 38 38 40 41 41 41 40 39 41 42 45 48 51 53 55 57 58 57 58 59 59 59 60
41 36 37 33 30 28 31 34 29 32 33 33 34 34 34 34 34 35 37 38 40 41 42 43 42 39 40 45 48 53 55 56 59 60 62 64 66 68 69 70 70 69 68
38 35 38 35 31 35 36 32 32 36 34 32 33 34 35 36 37 38 39 41 43 44 43 40 42 45 48 52 55 59 63 66 69 70 70 71 72 72 73 75 76 77 77
40 40 40 40 38 32 32 31 34 36 34 34 35 36 37 38 40 41 43 45 45 43 43 47 50 54 58 62 65 69 71 73 74 76 76 76 77 78 79 80 81 83 84

GFSSE_500_spd_102.txt.gz
Wind_Speed
7 7 5 4 3 5 5 7 8 9 9 9 10 11 11 12 12 11 11 11 11 11 10 8 7 5 5 5 6 7 9 10 10 10 10 10 10 10 10 11 10 10 10
9 8 7 6 6 6 8 9 10 11 11 12 11 11 12 13 13 13 12 13 13 13 13 12 10 8 7 6 6 8 8 9 8 8 9 9 10 10 10 9 9 9 8
11 10 9 8 8 8 10 12 12 13 14 13 13 13 12 12 13 13 14 14 14 14 14 15 13 11 9 9 9 8 9 8 9 9 8 9 9 10 10 9 9 8 7
13 12 10 9 10 10 11 13 15 16 15 15 15 15 14 14 13 13 15 15 15 15 15 15 15 13 11 11 11 11 11 10 9 9 9 9 9 9 10 11 10 9 9
13 12 12 11 11 12 12 15 16 18 19 17 17 16 15 15 15 15 15 16 16 16 16 16 16 14 13 12 13 13 12 12 11 11 10 10 10 9 10 10 11 11 10
14 14 14 13 12 13 15 15 14 16 18 19 19 18 18 18 17 17 16 16 18 18 17 17 17 15 13 13 15 16 12 13 13 13 12 11 12 12 11 11 11 11 11
18 16 15 15 14 15 18 18 16 17 18 19 19 20 21 21 20 18 18 18 18 18 18 18 17 15 13 14 15 16 15 15 14 14 14 14 14 14 14 13 13 13 12
20 18 16 16 17 18 20 19 18 17 18 17 17 17 18 18 16 15 15 14 15 16 16 16 17 17 15 15 16 17 17 17 17 17 17 17 17 16 16 15 16 15 15
20 18 18 19 20 20 20 19 18 16 14 14 14 14 14 12 11 11 12 13 15 16 17 18 19 19 18 17 18 17 20 19 19 19 19 19 19 19 18 17 18 18 18
21 19 19 20 21 19 18 17 15 13 10 9 10 11 11 12 13 14 15 15 16 17 17 18 19 19 20 20 19 19 19 20 21 21 21 21 20 20 20 19 19 19 20
23 22 22 21 19 18 16 17 14 13 13 13 13 13 14 15 16 17 18 18 17 17 18 18 19 20 20 21 21 21 21 20 21 20 20 20 20 21 22 22 21 20 21
25 24 22 20 19 18 16 18 17 15 15 15 14 15 16 16 18 18 19 19 18 18 18 18 18 18 19 19 19 19 19 19 19 20 20 21 21 22 23 23 23 22 23
25 23 22 19 16 17 18 18 17 17 17 17 17 16 17 17 18 20 20 20 20 20 20 19 19 19 19 19 20 19 19 20 20 21 22 23 23 24 24 24 24 25 25
28 26 22 19 17 16 18 19 19 17 19 19 20 21 20 21 23 23 23 23 23 23 22 21 21 19 20 20 21 21 22 22 22 23 22 22 24 24 24 25 25 26 26
23 23 23 22 18 16 18 20 22 20 21 22 23 23 24 25 24 25 26 25 24 24 22 21 20 21 22 21 22 21 21 22 22 23 24 24 25 26 27 27 27 27 28
25 25 26 26 22 18 20 22 24 24 23 24 24 25 25 24 23 24 24 24 24 24 23 21 18 18 19 20 20 21 24 24 25 26 27 28 29 29 29 28 29 29 30
27 28 27 28 25 20 21 24 27 26 26 26 27 28 28 25 24 22 22 18 25 27 27 23 20 22 24 25 24 25 28 30 29 29 30 30 30 31 31 31 32 32 32
26 29 33 29 27 24 24 28 30 28 29 25 25 21 21 24 25 26 24 22 17 26 19 19 25 26 28 29 31 30 30 30 32 34 35 34 34 34 34 34 35 35 35
32 35 32 26 26 27 27 29 32 31 25 24 24 28 27 26 24 20 20 19 17 17 19 25 28 30 34 35 36 34 32 33 33 34 35 36 37 37 38 38 38 38 39
38 34 26 25 26 30 30 26 28 27 23 22 22 20 24 24 20 21 21 20 22 22 24 28 31 33 33 36 36 36 36 36 37 38 39 38 39 39 39 39 38 37 36
41 32 24 31 31 39 22 27 33 27 24 26 27 23 23 26 22 26 23 26 26 26 28 30 32 34 34 36 38 39 40 40 40 40 40 40 41 39 37 38 39 40 41
38 36 31 31 34 35 22 24 26 30 24 26 29 32 27 30 24 23 26 27 30 31 32 33 35 36 38 39 40 41 42 43 42 41 40 39 39 40 41 42 44 46 47
41 35 36 33 34 24 29 29 28 29 31 31 31 31 30 26 21 25 26 27 30 32 35 36 37 38 40 41 42 43 43 43 42 41 41 42 44 46 48 50 52 54 55
38 37 39 33 29 30 27 28 33 29 30 33 30 38 25 14 20 23 28 31 31 35 37 38 39 41 43 45 45 46 45 44 42 43 46 49 52 55 57 60 62 63 64
29 27 33 32 32 31 35 34 32 31 32 32 38 26 20 19 23 27 29 31 34 37 39 41 43 44 45 47 48 48 46 47 49 51 53 56 58 61 63 67 69 71 72
37 45 32 34 30 43 27 33 32 30 36 21 28 24 24 28 29 32 33 34 37 39 42 43 45 48 49 48 47 49 51 54 57 60 62 64 66 68 71 72 74 75 75

GFSSE_500_spd_105.txt.gz
Wind_Speed
9 7 7 6 4 4 6 6 6 7 8 10 10 10 10 10 11 11 12 13 12 12 11 10 9 8 8 7 7 7 7 7 7 7 7 7 7 7 7 8 8 8 9
11 10 9 8 7 6 7 8 10 10 10 10 11 12 12 12 12 13 13 14 14 14 13 13 12 11 10 10 9 8 8 8 8 8 7 7 6 6 6 6 6 6 5
13 12 11 11 9 8 8 8 10 12 13 13 12 12 12 13 14 14 14 15 15 15 14 14 14 14 12 13 12 10 10 9 9 9 8 7 7 7 6 6 6 6 4
14 13 12 12 10 10 10 9 11 13 14 15 14 13 13 14 14 14 15 16 16 16 15 14 15 15 15 15 14 13 11 11 11 10 9 9 8 8 9 8 7 7 6
16 15 14 13 12 11 10 11 13 14 15 15 16 16 15 15 16 16 16 16 16 17 17 15 16 16 17 16 15 15 14 12 11 11 11 11 11 10 10 9 10 9 8
17 16 15 14 13 12 12 13 15 15 15 17 17 18 18 17 17 19 19 18 18 18 18 17 16 17 17 17 15 14 15 14 13 13 13 13 13 12 12 11 11 11 11
18 18 17 16 15 14 14 15 17 18 17 17 18 18 18 18 18 19 20 19 19 19 17 17 15 16 17 16 15 15 15 15 15 15 15 14 15 15 14 14 13 12 12
21 20 19 18 17 17 16 18 19 19 19 18 16 16 16 17 17 15 15 16 16 16 16 16 14 16 17 16 16 17 17 16 16 16 17 16 17 16 16 15 15 14 15
23 22 21 20 18 18 18 19 19 19 18 17 13 12 11 10 10 10 11 12 13 15 16 17 17 19 19 19 19 18 18 18 18 18 18 18 19 18 17 16 16 16 16
23 23 21 19 18 17 17 18 17 17 17 15 11 10 11 11 10 12 13 14 14 15 16 17 18 19 19 20 20 20 20 20 20 20 20 20 19 19 17 17 17 17 17
25 23 21 20 19 17 17 18 17 18 17 16 15 13 12 12 14 14 14 15 15 15 16 17 17 18 19 20 20 21 21 21 21 21 20 19 18 18 18 18 18 18 19
30 25 21 19 19 17 18 17 18 19 20 17 17 16 16 15 15 16 17 16 17 17 17 18 19 19 20 20 20 19 19 19 19 19 19 19 19 19 19 19 19 19 19
32 27 23 20 18 17 18 17 19 20 19 17 18 19 17 17 18 17 19 20 20 20 20 21 21 21 21 21 21 20 20 19 20 20 20 20 21 21 21 21 20 20 21
36 31 25 23 20 18 17 16 19 19 20 17 19 21 20 21 22 22 22 23 24 25 23 23 23 23 23 22 21 22 22 22 23 23 22 22 21 21 21 22 22 22 23
47 31 27 23 20 20 17 17 19 19 20 19 21 24 23 23 23 23 23 25 25 24 25 25 24 24 24 24 23 22 23 22 21 22 22 23 25 25 26 25 26 27 27
45 31 27 25 22 21 18 19 20 19 21 23 23 26 26 25 26 26 24 24 26 26 25 24 25 23 22 20 21 21 21 23 24 25 26 27 28 29 30 31 32 31 30
34 35 31 28 22 21 22 22 20 21 22 25 27 25 27 27 26 26 25 25 26 25 23 26 25 24 23 24 25 25 25 25 27 29 30 31 32 33 33 34 35 34 34
35 30 29 27 23 24 25 24 24 23 25 26 26 30 26 24 23 24 25 26 28 27 25 23 27 23 26 30 30 31 32 33 33 34 35 35 36 36 36 36 37 37 38
20 22 33 32 29 30 29 27 26 28 26 28 29 29 28 24 22 21 22 21 21 22 20 17 22 24 27 29 31 32 34 37 38 38 38 38 39 39 39 39 40 40 40
28 30 31 36 31 33 30 25 23 32 27 24 25 26 27 26 24 25 23 21 20 20 22 23 25 27 30 32 34 34 36 37 38 40 40 40 42 42 43 43 43 43 42
36 36 33 32 32 27 18 20 29 30 25 22 25 27 27 27 26 24 28 26 29 27 26 26 26 28 31 33 36 36 37 39 40 41 43 44 45 46 46 46 44 42 41
36 40 37 28 30 15 22 25 32 25 28 28 27 25 29 27 36 26 28 27 26 26 28 30 30 31 33 36 38 39 42 42 44 45 47 48 48 48 47 45 44 44 44
38 39 38 33 29 26 28 31 28 25 30 29 26 26 30 28 29 34 31 28 25 26 27 31 32 34 37 39 40 42 44 46 48 49 51 52 52 50 47 45 47 48 49
38 38 40 38 31 27 34 30 29 29 28 22 26 31 30 30 34 20 21 22 23 26 29 33 35 38 40 42 44 46 48 49 50 51 52 52 51 50 52 53 55 57 58
39 40 41 39 37 36 35 30 34 31 27 32 33 41 35 34 22 11 16 20 24 29 33 36 39 41 44 45 48 50 52 55 55 54 50 50 52 56 59 61 64 66 67
39 33 28 28 34 35 32 30 29 24 32 40 32 35 17 15 19 18 19 25 29 34 36 39 43 45 47 49 52 54 55 55 54 55 56 58 61 64 67 69 71 72 74

GFSSE_500_spd_108.txt.gz
Wind_Speed
9 8 7 5 4 4 6 7 7 8 9 9 8 8 8 8 8 9 9 10 10 10 11 11 11 10 9 8 7 6 5 6 6 5 5 5 5 6 6 8 9 10 13
12 11 9 8 7 6 7 7 8 8 9 9 10 10 11 10 10 10 10 11 12 12 13 13 13 13 12 10 9 8 7 7 7 7 6 6 5 5 6 6 7 8 8
15 14 12 10 9 8 8 9 8 9 10 10 10 10 11 11 12 12 11 10 12 13 14 14 14 14 14 12 11 10 9 9 8 8 8 7 7 6 6 6 6 6 6
17 15 15 13 11 10 9 9 9 11 11 11 12 12 12 12 12 12 12 11 11 13 15 14 15 15 15 14 12 12 11 10 10 9 8 8 8 7 7 6 6 6 6
18 16 16 15 13 12 10 9 10 12 13 13 13 14 14 13 13 15 15 14 13 14 15 15 16 15 14 15 14 13 13 12 11 10 10 10 9 9 8 8 7 6 6
20 17 17 16 15 13 12 11 12 13 14 16 15 15 15 15 15 15 16 18 17 16 17 16 16 16 14 14 15 14 15 14 13 12 12 11 11 11 10 10 9 8 6
22 19 17 18 16 15 14 13 14 16 16 17 17 16 15 14 15 16 16 16 16 15 15 15 16 15 13 14 14 14 15 15 15 14 14 13 13 13 12 12 10 10 9
23 21 20 20 19 17 16 16 16 17 17 17 19 17 15 15 14 13 12 12 11 10 11 13 14 14 14 14 15 15 16 16 17 17 17 16 16 15 15 14 13 12 11
24 24 23 22 20 19 18 17 17 18 18 17 17 15 13 11 9 8 8 8 8 9 10 12 13 15 16 16 17 17 18 18 18 19 19 19 19 18 17 16 15 13 13
25 27 25 23 21 20 19 18 17 18 19 15 15 13 13 13 11 10 10 12 13 12 11 12 13 14 15 16 17 18 19 20 20 20 20 20 20 20 18 16 15 15 15
27 28 28 25 23 21 20 18 17 18 18 17 15 14 14 14 13 13 15 14 15 14 13 13 13 13 14 15 16 17 17 18 19 20 20 19 18 17 17 17 17 16 16
32 34 32 30 27 22 20 18 18 19 19 19 18 16 16 15 13 12 15 15 16 17 17 18 17 17 17 16 17 17 18 18 18 18 18 18 18 18 18 18 18 18 18
35 35 35 32 28 23 21 19 19 19 19 18 17 15 17 16 16 15 16 18 20 21 20 21 22 21 20 19 18 18 19 19 19 19 19 20 20 20 20 20 20 20 19
37 37 39 33 28 24 21 20 20 18 19 17 17 16 18 18 19 21 19 21 22 22 23 22 23 23 22 21 21 21 21 21 22 22 22 22 22 21 21 21 22 23 23
28 33 38 33 29 26 24 22 21 18 18 18 18 17 19 20 20 23 22 22 24 24 23 22 22 22 23 23 23 23 22 22 23 22 21 22 22 23 24 25 26 26 27
31 33 35 44 39 29 25 26 23 19 20 20 19 19 21 23 25 26 26 27 27 25 24 23 23 23 24 24 22 22 21 22 22 23 24 24 25 27 28 29 30 31 31
22 27 39 45 38 31 29 27 25 23 23 24 22 23 23 23 26 26 23 24 26 25 25 24 24 25 26 26 25 25 24 26 28 29 30 31 31 31 32 34 33 34 34
27 29 37 47 37 30 28 30 28 26 26 25 25 25 25 24 26 25 26 26 27 26 26 26 26 27 26 29 28 29 29 29 30 32 34 36 35 35 36 37 36 36 37
34 24 30 36 32 32 34 32 29 25 26 28 28 27 27 27 26 25 23 22 23 23 25 25 25 25 23 26 28 29 31 33 33 34 36 39 39 39 39 39 39 39 40
31 27 27 38 35 38 42 33 28 30 29 28 28 26 27 26 23 25 28 27 25 26 25 24 24 25 26 27 29 31 33 35 36 37 38 40 42 42 42 42 43 43 44
39 37 34 28 31 36 36 35 31 34 31 29 27 29 30 28 30 28 27 28 26 30 28 28 30 32 29 28 29 30 32 35 37 39 41 43 44 44 45 46 48 48 49
37 39 44 31 34 35 31 39 27 25 28 26 29 28 30 34 32 32 28 29 37 33 33 32 30 29 28 29 31 33 35 37 39 41 43 45 47 48 49 49 50 51 51
31 32 34 35 33 33 28 22 23 21 25 29 31 32 34 35 38 31 32 34 32 36 33 30 27 27 29 31 33 36 39 42 45 47 48 50 51 52 54 54 54 54 52
36 36 40 40 39 39 27 28 28 29 24 33 32 35 41 41 44 38 37 32 27 24 24 25 26 28 32 34 36 40 43 46 48 49 51 52 55 57 58 57 56 55 53
35 39 37 40 39 38 31 22 25 26 30 34 32 34 39 41 32 36 31 26 16 19 21 24 29 33 36 38 41 44 47 49 51 54 55 57 58 59 58 57 58 60 61
33 37 40 37 31 29 25 30 24 38 36 38 27 31 31 20 20 25 12 14 16 19 22 29 34 36 37 41 46 48 49 51 55 56 56 57 59 62 64 67 69 71 73

GFSSE_500_spd_111.txt.gz
Wind_Speed
11 9 7 6 5 3 0 1 3 4 5 5 5 5 5 5 4 5 6 7 8 9 10 10 9 8 7 7 6 5 4 3 4 5 5 5 6 7 8 9 10 12 14
15 12 11 9 8 6 3 2 3 3 4 5 7 7 6 6 5 5 7 7 9 9 10 11 10 10 10 9 9 8 7 6 6 5 6 5 5 5 6 7 8 9 11
18 14 13 12 10 9 7 6 4 3 5 6 8 8 8 7 7 6 7 7 9 10 12 11 11 10 10 11 10 9 9 8 7 6 6 5 5 5 5 6 7 8 9
20 17 15 14 14 12 11 8 6 5 6 7 9 10 11 10 9 7 7 9 10 11 13 13 12 11 11 11 11 10 10 9 9 8 8 7 7 7 6 5 6 7 8
21 19 16 16 16 15 14 10 8 7 8 10 10 11 12 12 12 11 9 10 11 11 13 14 14 13 12 11 10 10 11 10 10 9 9 9 8 8 8 7 7 7 7
22 21 19 18 19 18 16 13 11 10 11 12 12 13 13 13 13 12 12 13 13 13 14 14 14 13 13 12 12 10 10 11 11 11 11 11 11 10 10 10 9 7 7
23 21 21 21 20 19 18 16 14 14 14 13 13 14 14 13 13 12 12 12 12 12 11 11 10 11 10 10 10 10 10 11 12 13 12 13 13 13 13 12 12 10 9
24 23 23 23 22 22 20 19 18 17 16 15 14 14 14 13 14 12 10 8 8 7 7 7 8 10 10 10 10 11 12 13 13 14 15 15 16 15 15 14 14 13 11
25 25 25 25 24 24 23 21 20 19 17 16 15 15 15 13 12 9 8 7 6 7 6 7 9 10 11 12 12 11 12 14 15 16 17 17 18 19 18 17 16 13 12
26 26 26 26 26 25 25 24 22 20 18 16 17 15 16 14 12 10 9 7 10 9 9 9 11 11 12 13 12 12 12 13 14 15 17 18 18 18 18 17 15 14 14
26 26 27 26 26 27 27 26 24 21 19 18 18 16 16 15 14 12 10 9 10 10 10 10 11 12 13 14 15 14 15 15 14 15 15 16 17 16 16 16 16 16 16
27 26 25 25 26 28 28 27 25 22 20 19 19 19 18 16 15 14 12 11 12 13 14 14 13 14 14 15 15 16 16 16 16 16 16 17 17 17 18 18 18 18 18
27 25 26 27 28 30 31 29 27 23 21 20 21 19 17 16 16 15 15 16 17 17 17 17 16 17 18 17 17 16 17 17 18 17 17 17 18 19 20 20 20 19 19
31 28 26 29 30 32 31 29 30 25 22 22 21 20 18 18 17 16 18 17 19 19 19 20 19 19 19 19 19 19 19 19 19 20 21 21 20 20 19 19 19 20 21
29 26 31 31 29 30 30 35 31 27 24 23 23 21 20 18 18 18 18 19 22 22 23 23 22 21 21 21 21 20 21 21 21 21 22 21 20 19 20 21 21 23 24
34 32 31 37 31 32 33 34 31 27 27 27 25 22 23 22 21 22 22 22 24 25 24 24 26 24 23 22 23 22 23 22 21 20 21 22 22 23 24 24 26 27 28
32 32 38 26 38 40 37 38 33 33 31 29 27 25 25 24 25 24 23 25 25 22 22 24 27 25 26 24 24 26 25 25 25 24 25 26 27 29 30 30 30 31 31
33 30 29 30 27 45 42 44 41 33 34 31 29 27 27 27 28 26 26 25 24 25 25 26 27 26 27 27 28 27 29 28 29 28 28 28 28 29 31 33 34 34 35
40 33 30 27 30 35 39 39 39 35 35 33 31 30 29 28 29 28 29 28 26 24 21 22 24 27 26 25 27 27 27 27 28 30 31 33 33 36 36 37 37 38 38
38 39 37 30 29 34 32 47 40 36 37 34 32 32 32 29 29 30 30 28 28 27 26 23 26 26 25 26 27 27 29 31 33 34 33 33 33 35 38 39 41 42 42
38 36 34 31 31 31 42 43 38 34 35 35 37 38 32 31 32 33 32 31 29 29 28 27 28 29 28 28 30 33 34 34 32 32 32 36 37 38 40 42 43 44 45
37 36 35 31 32 33 48 42 34 34 38 40 39 41 38 36 35 34 36 36 35 34 32 33 35 33 32 31 31 31 34 34 36 36 36 38 40 42 44 46 47 48 49
41 39 38 43 41 38 39 36 37 35 41 42 37 36 39 37 37 40 41 37 35 36 37 39 36 39 34 32 28 29 31 34 37 39 41 43 45 47 47 48 51 52 53
39 39 39 35 37 40 38 32 41 30 26 31 36 34 39 38 40 50 43 38 43 38 37 35 34 25 22 26 31 34 36 39 41 43 46 48 49 50 51 54 56 57 57
37 37 37 38 34 34 34 32 26 26 31 32 32 32 46 36 39 42 37 39 34 37 40 31 18 22 25 32 36 39 40 43 44 47 50 52 52 53 55 56 56 57 59
36 38 36 37 33 34 29 30 27 29 28 36 41 39 45 53 43 40 30 30 17 12 13 16 21 28 33 34 39 42 43 46 49 50 52 53 54 56 59 62 64 66 68

GFSSE_500_spd_114.txt.gz
Wind_Speed
14 13 11 10 9 7 5 5 3 2 1 1 1 1 1 3 3 3 5 5 6 6 6 7 8 8 8 7 7 6 6 5 5 5 5 6 7 8 9 10 12 14 16
17 15 13 12 11 9 7 7 5 3 2 0 1 1 2 3 4 4 5 5 6 6 6 6 7 8 9 9 9 9 8 8 7 7 6 6 7 8 8 10 11 12 13
20 18 15 14 13 12 10 9 6 5 2 2 2 3 4 4 5 5 6 6 7 7 6 6 7 7 8 8 8 9 9 9 9 8 8 8 7 8 8 10 10 11 12
22 20 18 17 16 15 13 12 9 7 4 4 5 6 6 6 7 8 8 8 8 8 7 7 7 8 9 8 8 8 9 9 9 9 8 8 9 8 9 9 10 11 11
25 22 20 19 18 18 17 15 12 9 7 7 6 8 9 9 9 11 11 10 11 10 9 9 9 8 8 8 8 8 8 9 9 9 8 9 9 9 10 10 11 11 11
27 24 22 20 20 19 19 17 15 13 11 10 9 9 10 11 11 11 13 12 13 12 12 12 11 10 9 7 7 7 8 7 8 9 10 11 12 11 11 11 11 12 11
28 26 25 23 22 21 20 21 19 16 14 13 12 12 11 12 12 12 12 13 13 13 10 10 9 8 8 6 5 6 6 7 8 10 11 12 14 14 14 14 14 14 13
28 27 26 25 24 23 23 23 21 19 17 16 15 12 12 12 12 12 13 11 9 8 5 5 5 4 4 6 6 6 7 8 9 10 12 13 14 14 15 15 15 15 14
28 28 27 26 26 25 25 25 24 22 20 19 17 14 13 13 12 11 11 10 8 7 6 5 4 5 5 5 7 7 8 9 9 11 12 13 15 15 15 15 15 14 13
28 30 29 27 27 27 27 26 25 24 22 22 19 16 14 14 13 13 11 11 9 9 8 8 8 7 8 9 10 10 10 11 12 13 14 15 15 16 16 15 14 14 13
29 30 31 30 29 28 26 26 26 25 25 23 21 18 16 16 16 15 13 13 13 11 9 9 9 10 11 11 12 12 13 14 14 14 14 14 14 15 15 15 14 14 15
37 31 33 32 30 29 27 26 26 26 26 24 23 20 18 18 18 18 15 14 14 14 13 13 12 13 14 13 14 15 16 16 16 15 15 16 15 16 16 15 16 16 16
27 30 32 32 31 28 27 26 26 27 27 26 24 22 20 19 19 19 18 17 17 18 15 16 15 16 16 16 17 19 19 17 17 17 16 17 16 17 17 18 18 18 17
33 23 30 29 27 27 27 28 28 28 28 27 25 23 21 21 22 22 20 20 20 19 18 17 17 18 19 19 18 19 21 21 21 19 19 19 18 19 19 18 17 16 17
37 28 28 26 29 30 30 30 30 30 28 28 28 24 25 24 24 23 22 22 21 21 21 21 22 22 23 23 21 21 22 22 22 21 21 21 20 20 19 18 18 19 20
34 28 34 32 25 33 33 32 32 31 31 33 30 27 27 25 26 25 24 24 24 24 24 25 25 25 25 24 24 23 22 23 23 23 21 20 21 22 21 21 22 23 25
41 41 26 35 32 31 35 35 36 35 36 35 32 30 28 27 27 26 27 26 26 26 26 26 25 26 26 26 25 23 23 24 26 25 25 25 24 26 27 28 28 29 30
42 41 44 33 33 30 38 40 42 38 36 35 33 32 31 30 29 29 29 29 29 28 26 27 28 29 29 27 25 24 25 26 28 29 28 29 31 29 30 30 32 33 35
41 45 45 33 35 36 31 36 39 42 43 40 37 38 35 33 31 31 32 32 31 32 31 30 30 28 28 26 26 26 24 26 28 29 29 28 31 32 34 35 37 38 38
41 41 36 31 34 35 36 33 34 42 43 46 43 39 35 35 36 35 34 35 34 33 32 31 30 30 27 27 27 25 26 26 28 29 31 33 35 36 36 36 38 38 39
43 41 40 37 34 33 29 35 37 36 42 44 44 41 37 37 38 37 36 34 35 35 33 31 33 35 33 31 29 29 28 30 32 33 34 36 37 37 39 41 40 42 43
44 40 35 35 39 35 35 31 35 41 44 49 49 43 37 38 41 42 40 39 40 38 34 34 33 36 36 35 34 35 35 33 34 34 34 37 37 38 40 43 44 46 48
43 40 39 38 36 33 34 35 35 42 46 46 42 41 40 41 44 44 41 44 40 40 40 38 36 38 40 39 40 42 38 29 29 31 34 38 41 45 48 49 50 51 52
47 41 40 38 38 38 36 39 43 35 48 44 41 39 43 46 43 40 45 42 47 43 42 41 38 41 39 38 36 30 29 30 34 37 39 43 46 48 51 52 53 55 57
47 45 43 41 42 38 36 28 32 41 37 40 42 40 39 45 46 49 54 47 44 44 49 43 41 43 38 35 31 21 29 35 42 44 47 46 50 51 54 56 56 56 56
45 48 48 47 45 39 37 38 37 36 35 26 39 35 34 36 39 50 44 44 41 35 34 29 18 15 17 24 27 33 39 43 45 46 48 51 51 51 53 56 59 62 65